Regional Weather Roundup
Issued by NWS

Home | Current Version | Previous Version | Graphics & Text | Print | Product List | Glossary On
Versions: 1 2 3 4 5 6 7 8 9 10 11 12 13 14 15 16 17 18 19 20 21 22 23 24 25 26 27 28 29 30 31 32 33 34 35 36 37 38 39 40 41 42 43 44 45 46 47 48
000
ASUS45 KCYS 271010
RWRWY

WYOMING REGIONAL WEATHER ROUNDUP
NATIONAL WEATHER SERVICE CHEYENNE WY
300 AM MST TUE JAN 27 2015

NOTE:  "FAIR" INDICATES FEW OR NO CLOUDS BELOW 12,000 FEET
WITH NO SIGNIFICANT WEATHER AND/OR OBSTRUCTIONS TO VISIBILITY.

WYZ001-271100-
YELLOWSTONE NATIONAL PARK

CITY           SKY/WX    TMP DP  RH WIND       PRES   REMARKS
LK YELLOWSTONE   N/A     10   6  84 CALM      30.29S
W YELLOWSTONE  NOT AVBL

$$
WYZ002>013-054>058-071-098>099-271100-
NORTHERN WYOMING

CITY           SKY/WX    TMP DP  RH WIND       PRES   REMARKS
JACKSON        CLOUDY    12  10  92 N6        30.29F VSB 1/2 WCI   3
CODY           FAIR      41  25  52 CALM      30.08S
GREYBULL       FAIR      17  16  95 CALM      30.11F
WORLAND        FAIR      18  14  84 SW5       30.10F WCI  11
SHERIDAN       FAIR      37  25  61 CALM      29.97F
BUFFALO        FAIR      52  21  29 W9        30.03S
GILLETTE       FAIR      47  28  47 SW14      30.00S
HULETT           N/A    N/A N/A N/A MISG        N/A
NEWCASTLE      FAIR      30  27  86 CALM      30.06F

$$
WYZ014>020-022>026-101>103-271100-
CENTRAL WYOMING

CITY           SKY/WX    TMP DP  RH WIND       PRES   REMARKS
BIG PINEY      FAIR      15  11  83 E6        30.29F WCI   6
PINEDALE       FAIR      12  10  92 W7        30.31S WCI   2
DUBOIS         FAIR      34  19  55 NW16      30.21F WCI  23
LANDER         NOT AVBL
RIVERTON       FAIR      27  23  85 CALM      30.19F
CASPER         FAIR      45  24  43 SW23G30   30.12F
DOUGLAS        FAIR      39  25  57 NW7       30.10F WCI  34

$$
WYZ021-027>030-104>119-271100-
SOUTHERN WYOMING

CITY           SKY/WX    TMP DP  RH WIND       PRES   REMARKS
EVANSTON       FAIR      34  25  69 E8        30.25S WCI  27
KEMMERER       FAIR      28  21  74 N9        30.27F WCI  20
FORT BRIDGER   FAIR      34  29  79 N3        30.30R
ROCK SPRINGS   FAIR      30  23  75 NE3       30.26S
DIXON          FAIR      26  21  81 E5        30.35F WCI  20
RAWLINS        FAIR      27  22  81 N5        30.28F WCI  22
SARATOGA       FAIR      32  25  74 S6        30.30S WCI  26
LARAMIE        FAIR      29  20  69 S10       30.26F WCI  20
CHEYENNE       FAIR      46  19  34 W12       30.17F
TORRINGTON     FAIR      32  25  75 E3        30.08S
PINE BLUFFS    FAIR      32  25  74 W8        30.14F WCI  25

$$


USA.gov is the U.S. government's official web portal to all federal, state and local government web resources and services.